This demonstration page uses our WeatherBlox Daily Observations layout. Learn more.

Hourly Observations for February 23, 2017

Temp ( °F °C ) Dew Point ( °F °C ) Humidity (%) Winds ( mph kmh ) Pressure ( in mb ) Visibility ( mi km ) Precip ( " mm )
12:15 am 00:15 Cloudy 54 12 54 12 100 100 undefined N/A 29.91 1013 10 16.09344 0 0
12:55 am 00:55 Cloudy 54 12 52 11 94 94 undefined N/A 29.91 1013 10 16.09344 0 0
1:15 am 01:15 Cloudy 54 12 54 12 100 100 undefined N/A 29.91 1013 10 16.09344 0 0
1:35 am 01:35 Cloudy 54 12 54 12 100 100 undefined N/A 29.88 1012 10 16.09344 0 0
1:55 am 01:55 Cloudy 52 11 52 11 100 100 undefined N/A 29.88 1012 10 16.09344 0 0
2:15 am 02:15 Cloudy 54 12 54 12 100 100 undefined N/A 29.88 1012 10 16.09344 0 0
2:35 am 02:35 Cloudy 54 12 54 12 100 100 undefined N/A 29.88 1012 10 16.09344 0 0
2:55 am 02:55 Mostly Cloudy 54 12 54 12 100 100 undefined N/A 29.88 1012 10 16.09344 0 0
3:15 am 03:15 Partly Cloudy with Mist and Fog 50 10 50 10 100 100 undefined N/A 29.88 1012 5 8.04672 0 0
3:35 am 03:35 Partly Cloudy 50 10 50 10 100 100 undefined N/A 29.88 1012 10 16.09344 0 0
3:55 am 03:55 Cloudy with Mist and Fog 50 10 50 10 100 100 undefined N/A 29.88 1012 1 1.609344 0 0
4:15 am 04:15 Cloudy with Mist and Fog 50 10 50 10 100 100 undefined N/A 29.88 1012 2 3.218688 0 0
4:35 am 04:35 Cloudy with Mist and Fog 48 9 48 9 100 100 undefined N/A 29.88 1012 5 8.04672 0 0
4:55 am 04:55 Cloudy with Mist and Fog 48 9 48 9 100 100 undefined N/A 29.88 1012 1 1.609344 0 0
5:15 am 05:15 Cloudy with Fog 46 8 46 8 100 100 undefined N/A 29.91 1013 0.25 0.402336 0 0
5:35 am 05:35 Cloudy with Fog 48 9 48 9 100 100 undefined N/A 29.88 1012 0.25 0.402336 0 0
5:55 am 05:55 Cloudy with Fog 45 7 45 7 100 100 undefined N/A 29.91 1013 0.5 0.804672 0 0
6:15 am 06:15 Cloudy with Fog 46 8 46 8 100 100 undefined N/A 29.94 1014 0.25 0.402336 0 0
6:35 am 06:35 Cloudy with Fog 46 8 46 8 100 100 undefined N/A 29.94 1014 0.25 0.402336 0 0
6:55 am 06:55 Cloudy with Fog 46 8 46 8 100 100 undefined N/A 29.94 1014 0 0 0 0
7:15 am 07:15 Cloudy with Fog 46 8 46 8 100 100 undefined N/A 29.94 1014 0 0 0 0
7:35 am 07:35 Cloudy with Fog 48 9 48 9 100 100 undefined N/A 29.91 1013 0 0 0 0
7:55 am 07:55 Cloudy with Fog 48 9 48 9 100 100 undefined N/A 29.91 1013 0 0 0 0
8:15 am 08:15 Cloudy with Fog 50 10 50 10 100 100 undefined N/A 29.91 1013 0 0 0 0
8:35 am 08:35 Cloudy with Fog 52 11 52 11 100 100 undefined N/A 29.91 1013 0.5 0.804672 0 0
8:55 am 08:55 Cloudy with Mist and Fog 52 11 52 11 100 100 undefined N/A 29.91 1013 0.75 1.207008 0 0
9:15 am 09:15 Partly Cloudy 55 13 55 13 100 100 undefined N/A 29.91 1013 7 11.265408 0 0
9:35 am 09:35 Sunny 57 14 57 14 100 100 undefined N/A 29.91 1013 10 16.09344 0 0
9:55 am 09:55 Sunny 61 16 59 15 94 94 undefined N/A 29.91 1013 10 16.09344 0 0
10:15 am 10:15 Sunny 63 17 59 15 88 88 undefined N/A 29.91 1013 10 16.09344 0 0
10:35 am 10:35 Sunny 64 18 57 14 78 78 undefined N/A 29.91 1013 10 16.09344 0 0
10:55 am 10:55 Sunny 68 20 57 14 69 69 undefined N/A 29.91 1013 10 16.09344 0 0
11:15 am 11:15 Sunny 68 20 57 14 69 69 undefined N/A 29.88 1012 10 16.09344 0 0
11:35 am 11:35 Sunny 70 21 55 13 60 60 undefined N/A 29.88 1012 10 16.09344 0 0
11:55 am 11:55 Sunny 73 23 57 14 57 57 undefined N/A 29.88 1012 10 16.09344 0 0
12:15 pm 12:15 Sunny 73 23 55 13 53 53 undefined N/A 29.85 1011 10 16.09344 0 0
12:35 pm 12:35 Sunny 75 24 55 13 50 50 undefined N/A 29.85 1011 10 16.09344 0 0
12:55 pm 12:55 Sunny 77 25 55 13 47 47 undefined N/A 29.83 1010 10 16.09344 0 0
1:15 pm 13:15 Sunny 77 25 55 13 47 47 undefined N/A 29.83 1010 10 16.09344 0 0
1:35 pm 13:35 Sunny 77 25 54 12 44 44 undefined N/A 29.8 1009 10 16.09344 0 0
1:55 pm 13:55 Sunny 77 25 54 12 44 44 undefined N/A 29.8 1009 10 16.09344 0 0
2:15 pm 14:15 Sunny 79 26 54 12 42 42 undefined N/A 29.8 1009 10 16.09344 0 0
2:35 pm 14:35 Sunny 79 26 54 12 42 42 undefined N/A 29.8 1009 10 16.09344 0 0
2:55 pm 14:55 Sunny 79 26 54 12 42 42 undefined N/A 29.8 1009 10 16.09344 0 0
3:15 pm 15:15 Partly Cloudy 79 26 54 12 42 42 undefined N/A 29.8 1009 10 16.09344 0 0
3:35 pm 15:35 Partly Cloudy 79 26 54 12 42 42 undefined N/A 29.8 1009 10 16.09344 0 0
3:55 pm 15:55 Partly Cloudy 79 26 54 12 42 42 undefined N/A 29.8 1009 10 16.09344 0 0
4:15 pm 16:15 Sunny 77 25 54 12 44 44 undefined N/A 29.8 1009 10 16.09344 0 0
4:35 pm 16:35 Sunny 77 25 54 12 44 44 undefined N/A 29.8 1009 10 16.09344 0 0
4:55 pm 16:55 Sunny 77 25 54 12 44 44 undefined N/A 29.8 1009 10 16.09344 0 0
5:15 pm 17:15 Sunny 73 23 54 12 50 50 undefined N/A 29.83 1010 10 16.09344 0 0
5:35 pm 17:35 Sunny 73 23 54 12 50 50 undefined N/A 29.83 1010 10 16.09344 0 0
5:55 pm 17:55 Sunny 72 22 54 12 53 53 undefined N/A 29.83 1010 10 16.09344 0 0
6:15 pm 18:15 Clear 72 22 54 12 53 53 undefined N/A 29.83 1010 10 16.09344 0 0
6:35 pm 18:35 Clear 72 22 54 12 53 53 undefined N/A 29.85 1011 10 16.09344 0 0
6:55 pm 18:55 Clear 70 21 54 12 57 57 undefined N/A 29.85 1011 10 16.09344 0 0
7:15 pm 19:15 Clear 70 21 54 12 57 57 undefined N/A 29.85 1011 10 16.09344 0 0
7:35 pm 19:35 Clear 68 20 54 12 60 60 undefined N/A 29.85 1011 10 16.09344 0 0
7:55 pm 19:55 Clear 68 20 54 12 60 60 undefined N/A 29.85 1011 10 16.09344 0 0
8:15 pm 20:15 Clear 66 19 54 12 64 64 undefined N/A 29.88 1012 10 16.09344 0 0
8:35 pm 20:35 Clear 66 19 54 12 64 64 undefined N/A 29.88 1012 10 16.09344 0 0
8:55 pm 20:55 Clear 64 18 54 12 68 68 undefined N/A 29.88 1012 10 16.09344 0 0
9:15 pm 21:15 Clear 64 18 54 12 68 68 undefined N/A 29.88 1012 10 16.09344 0 0
9:35 pm 21:35 Clear 64 18 54 12 68 68 undefined N/A 29.88 1012 10 16.09344 0 0
9:55 pm 21:55 Clear 64 18 54 12 68 68 undefined N/A 29.88 1012 10 16.09344 0 0
10:15 pm 22:15 Clear 64 18 54 12 68 68 undefined N/A 29.88 1012 10 16.09344 0 0
10:35 pm 22:35 Clear 63 17 54 12 73 73 undefined N/A 29.88 1012 10 16.09344 0 0
10:55 pm 22:55 Clear 63 17 54 12 73 73 undefined N/A 29.88 1012 10 16.09344 0 0
11:15 pm 23:15 Clear 63 17 54 12 73 73 undefined N/A 29.88 1012 10 16.09344 0 0
11:35 pm 23:35 Clear 63 17 54 12 73 73 undefined N/A 29.88 1012 10 16.09344 0 0
11:55 pm 23:55 Clear 61 16 54 12 77 77 undefined N/A 29.88 1012 10 16.09344 0 0

Powered by AerisWeather